C/2003 J1 ( NEAT )

Japanese version
Home page
Updated on July 28, 2004

---------------------------------------------------------------------

* Profile

Discovery Date May 13, 2003
Magnitude 19.4 mag
Discoverer Near-Earth-Asteroid Tracking Team (Jet Propulsion Laboratory)

* Orbital Elements

The following orbital elements are taken from MPC 52314: 

Epoch 2003 Oct. 8.0 TT = JDT 2452920.5
T 2003 Oct. 10.5545 TT                                  MPC
q   5.125426             (2000.0)            P               Q
z  +0.001747       Peri.  196.0228      +0.4759734      -0.2641921
 +/-0.000005       Node   122.0328      -0.6583513      +0.5253778
e   0.991047       Incl.   98.3119      -0.5831147      -0.8088144
From 70 observations 2003 May 13-2004 June 25, mean residual 0".5.

* Finding Charts

* Magnitudes Graph

        m1 = 7.0 + 5 log d + 10.0 log r

---------------------------------------------------------------------

The orbital elements are published at the MPC Ephemerides and Orbital Elements.
The charts are made with StellaNavigator Ver.2.0 for Windows (AstroArts / ASCII).
The magnitudes graphs are made with Comet for Windows.

---------------------------------------------------------------------

Copyright(C) Seiichi Yoshida (comet@aerith.net). All rights reserved.